When you browse on this site, cookies collect data to enhance your experience and personalize the content and advertising you see.
Visit our Privacy Policy to learn more. By continuing to use the site, you agree to this use of cookies and data.
  • în România
  • Lista ţărilor
  • Pe 7 zile
  • Temperatura apei
  • Hartă satelitară
  • Meteo pe hartă
  • Widget-uri
  • user-avatar
    Intrare

    Meteo pe oră la Bandar Abbas

    Astăzi, 24 Martie, Duminică

    Timp Temperatura Precipitaţii Vânt Presiune Umiditate
    00:00 +23°C° 0.6 mm 2 m/s 760 mmHg 67%
    01:00 +23°C° 0.6 mm 2 m/s 760 mmHg 66%
    02:00 +23°C° 0.6 mm 2 m/s 760 mmHg 67%
    03:00 +22°C° 0.6 mm 3 m/s 759 mmHg 67%
    04:00 +22°C° 0 mm 3 m/s 759 mmHg 68%
    05:00 +22°C° 0.8 mm 3 m/s 759 mmHg 69%
    06:00 +22°C° 0.8 mm 3 m/s 759 mmHg 71%
    07:00 +23°C° 0.8 mm 2 m/s 759 mmHg 72%
    08:00 +22°C° 0.9 mm 3 m/s 760 mmHg 68%
    09:00 +24°C° 0.9 mm 3 m/s 760 mmHg 64%
    10:00 +25°C° 0.9 mm 3 m/s 760 mmHg 60%
    11:00 +25°C° 0.3 mm 3 m/s 760 mmHg 59%
    12:00 +26°C° 0.3 mm 3 m/s 759 mmHg 58%
    13:00 +27°C° 0.3 mm 4 m/s 759 mmHg 57%
    14:00 +27°C° 0.1 mm 3 m/s 759 mmHg 57%
    15:00 +27°C° 0.1 mm 3 m/s 758 mmHg 57%
    16:00 +27°C° 0.1 mm 3 m/s 758 mmHg 57%
    17:00 +27°C° 0 mm 2 m/s 758 mmHg 59%
    18:00 +26°C° 0 mm 2 m/s 758 mmHg 62%
    19:00 +26°C° 0 mm 2 m/s 758 mmHg 64%
    20:00 +26°C° 0 mm 2 m/s 758 mmHg 66%
    21:00 +25°C° 0 mm 2 m/s 759 mmHg 68%
    22:00 +25°C° 0 mm 3 m/s 759 mmHg 70%
    23:00 +25°C° 0 mm 3 m/s 759 mmHg 73%

    Mâine, 25 Martie, Luni

    Timp Temperatura Precipitaţii Vânt Presiune Umiditate
    00:00 +24°C° 0 mm 3 m/s 759 mmHg 75%
    01:00 +24°C° 0 mm 2 m/s 759 mmHg 78%
    02:00 +24°C° 0 mm 2 m/s 759 mmHg 76%
    03:00 +24°C° 0 mm 2 m/s 758 mmHg 75%
    04:00 +24°C° 0 mm 2 m/s 758 mmHg 73%
    05:00 +24°C° 0 mm 2 m/s 759 mmHg 71%
    06:00 +24°C° 0 mm 2 m/s 759 mmHg 69%
    07:00 +24°C° 0 mm 2 m/s 759 mmHg 66%
    08:00 +26°C° 0 mm 2 m/s 760 mmHg 59%
    09:00 +27°C° 0 mm 2 m/s 760 mmHg 52%
    10:00 +28°C° 0 mm 2 m/s 760 mmHg 45%
    11:00 +29°C° 0 mm 2 m/s 760 mmHg 44%
    12:00 +30°C° 0 mm 2 m/s 760 mmHg 43%
    13:00 +30°C° 0 mm 2 m/s 760 mmHg 41%
    14:00 +30°C° 0.1 mm 2 m/s 760 mmHg 44%
    15:00 +30°C° 0.1 mm 2 m/s 759 mmHg 46%
    16:00 +29°C° 0.1 mm 2 m/s 758 mmHg 49%
    17:00 +29°C° 0 mm 2 m/s 759 mmHg 52%
    18:00 +28°C° 0 mm 2 m/s 759 mmHg 56%
    19:00 +28°C° 0 mm 1 m/s 759 mmHg 59%
    20:00 +28°C° 0 mm 1 m/s 759 mmHg 60%
    21:00 +28°C° 0 mm 1 m/s 760 mmHg 60%
    22:00 +28°C° 0 mm 1 m/s 760 mmHg 61%
    23:00 +28°C° 0.4 mm 1 m/s 760 mmHg 59%

    Poimâine, 26 Martie, Marţi

    Timp Temperatura Precipitaţii Vânt Presiune Umiditate
    00:00 +27°C° 0.4 mm 2 m/s 759 mmHg 58%
    01:00 +27°C° 0.4 mm 3 m/s 759 mmHg 57%
    02:00 +26°C° 0 mm 3 m/s 759 mmHg 60%
    03:00 +26°C° 0 mm 2 m/s 758 mmHg 62%
    04:00 +26°C° 0 mm 2 m/s 758 mmHg 65%
    05:00 +26°C° 0 mm 1 m/s 759 mmHg 65%
    06:00 +26°C° 0 mm 1 m/s 759 mmHg 65%
    07:00 +26°C° 0 mm 1 m/s 759 mmHg 64%
    08:00 +27°C° 0 mm 1 m/s 760 mmHg 61%
    09:00 +28°C° 0 mm 2 m/s 760 mmHg 58%
    10:00 +28°C° 0 mm 3 m/s 761 mmHg 54%
    11:00 +29°C° 0 mm 3 m/s 760 mmHg 54%
    12:00 +29°C° 0 mm 3 m/s 760 mmHg 55%
    13:00 +29°C° 0 mm 3 m/s 760 mmHg 55%
    14:00 +30°C° 0 mm 3 m/s 759 mmHg 54%
    15:00 +30°C° 0 mm 2 m/s 759 mmHg 53%
    16:00 +30°C° 0 mm 2 m/s 759 mmHg 52%
    17:00 +30°C° 0.1 mm 2 m/s 759 mmHg 50%
    18:00 +30°C° 0.1 mm 2 m/s 760 mmHg 48%
    19:00 +29°C° 0.1 mm 2 m/s 760 mmHg 46%
    20:00 +29°C° 0 mm 2 m/s 761 mmHg 45%
    21:00 +29°C° 0 mm 1 m/s 761 mmHg 45%
    22:00 +29°C° 0 mm 1 m/s 761 mmHg 44%
    23:00 +28°C° 0 mm 1 m/s 761 mmHg 44%

    27 Martie, Miercuri

    Timp Temperatura Precipitaţii Vânt Presiune Umiditate
    00:00 +28°C° 0 mm 1 m/s 761 mmHg 44%
    01:00 +28°C° 0 mm 2 m/s 760 mmHg 44%
    02:00 +27°C° 0.3 mm 2 m/s 760 mmHg 50%
    03:00 +26°C° 0.3 mm 3 m/s 760 mmHg 56%
    04:00 +25°C° 0.3 mm 3 m/s 761 mmHg 62%
    05:00 +25°C° 1.6 mm 3 m/s 761 mmHg 67%
    06:00 +24°C° 1.6 mm 2 m/s 762 mmHg 73%
    07:00 +24°C° 1.6 mm 1 m/s 762 mmHg 78%
    08:00 +24°C° 1.9 mm 1 m/s 763 mmHg 80%
    09:00 +24°C° 1.9 mm 2 m/s 763 mmHg 81%
    10:00 +24°C° 1.9 mm 2 m/s 764 mmHg 83%
    11:00 +24°C° 0.3 mm 3 m/s 763 mmHg 80%
    12:00 +24°C° 0.3 mm 3 m/s 762 mmHg 78%
    13:00 +25°C° 0.3 mm 4 m/s 762 mmHg 75%
    14:00 +25°C° 0 mm 3 m/s 761 mmHg 70%
    15:00 +26°C° 0 mm 3 m/s 761 mmHg 65%
    16:00 +27°C° 0 mm 3 m/s 760 mmHg 60%
    17:00 +27°C° 0 mm 2 m/s 760 mmHg 63%
    18:00 +26°C° 0 mm 1 m/s 761 mmHg 66%
    19:00 +26°C° 0 mm 1 m/s 761 mmHg 70%
    20:00 +26°C° 0 mm 1 m/s 761 mmHg 70%
    21:00 +25°C° 0 mm 1 m/s 762 mmHg 70%
    22:00 +25°C° 0 mm 1 m/s 762 mmHg 70%
    23:00 +25°C° 0 mm 1 m/s 762 mmHg 70%

    28 Martie, Joi

    Timp Temperatura Precipitaţii Vânt Presiune Umiditate
    00:00 +25°C° 0 mm 2 m/s 761 mmHg 69%
    01:00 +25°C° 0 mm 2 m/s 761 mmHg 68%
    02:00 +25°C° 0 mm 2 m/s 761 mmHg 68%
    03:00 +25°C° 0 mm 2 m/s 760 mmHg 68%
    04:00 +24°C° 0 mm 2 m/s 760 mmHg 68%
    05:00 +24°C° 0 mm 1 m/s 760 mmHg 69%
    06:00 +25°C° 0 mm 1 m/s 761 mmHg 70%
    07:00 +23°C° 0 mm 0 m/s 761 mmHg 70%
    08:00 +26°C° 0 mm 1 m/s 761 mmHg 63%
    09:00 +27°C° 0 mm 1 m/s 761 mmHg 56%
    10:00 +29°C° 0 mm 1 m/s 761 mmHg 49%
    11:00 +29°C° 0 mm 2 m/s 761 mmHg 48%
    12:00 +30°C° 0 mm 2 m/s 761 mmHg 46%
    13:00 +30°C° 0 mm 3 m/s 760 mmHg 45%
    14:00 +30°C° 0 mm 3 m/s 760 mmHg 44%
    15:00 +30°C° 0 mm 3 m/s 759 mmHg 43%
    16:00 +30°C° 0 mm 2 m/s 758 mmHg 42%
    17:00 +30°C° 0 mm 2 m/s 759 mmHg 45%
    18:00 +29°C° 0 mm 2 m/s 759 mmHg 48%
    19:00 +28°C° 0 mm 2 m/s 759 mmHg 51%
    20:00 +28°C° 0 mm 2 m/s 760 mmHg 55%
    21:00 +27°C° 0 mm 1 m/s 760 mmHg 58%
    22:00 +27°C° 0 mm 1 m/s 760 mmHg 61%
    23:00 +26°C° 0 mm 1 m/s 760 mmHg 63%

    29 Martie, Vineri

    Timp Temperatura Precipitaţii Vânt Presiune Umiditate
    00:00 +24°C° 0 mm 0 m/s 759 mmHg 65%
    01:00 +24°C° 0 mm 0 m/s 759 mmHg 67%
    02:00 +23°C° 0 mm 0 m/s 759 mmHg 66%
    03:00 +23°C° 0 mm 0 m/s 759 mmHg 66%
    04:00 +23°C° 0 mm 0 m/s 759 mmHg 66%
    05:00 +25°C° 0 mm 1 m/s 759 mmHg 65%
    06:00 +25°C° 0 mm 1 m/s 760 mmHg 65%
    07:00 +25°C° 0 mm 1 m/s 760 mmHg 64%
    08:00 +26°C° 0 mm 1 m/s 760 mmHg 59%
    09:00 +27°C° 0 mm 1 m/s 760 mmHg 54%
    10:00 +28°C° 0 mm 1 m/s 761 mmHg 48%
    11:00 +29°C° 0 mm 1 m/s 760 mmHg 46%
    12:00 +30°C° 0 mm 2 m/s 760 mmHg 44%
    13:00 +31°C° 0 mm 3 m/s 759 mmHg 42%
    14:00 +31°C° 0 mm 3 m/s 759 mmHg 42%
    15:00 +32°C° 0 mm 4 m/s 758 mmHg 42%
    16:00 +32°C° 0 mm 5 m/s 758 mmHg 42%
    17:00 +30°C° 0 mm 4 m/s 758 mmHg 45%
    18:00 +29°C° 0 mm 4 m/s 758 mmHg 48%
    19:00 +29°C° 0 mm 4 m/s 759 mmHg 51%
    20:00 +28°C° 0 mm 3 m/s 759 mmHg 54%
    21:00 +28°C° 0 mm 2 m/s 759 mmHg 56%
    22:00 +27°C° 0 mm 1 m/s 760 mmHg 59%
    23:00 +27°C° 0 mm 1 m/s 759 mmHg 60%
    Arată mai mult